Terminal Aerodrome Forecast
Issued by NWS Nashville, TN

Home | Current Version | Previous Version | Text Only | Print | Product List | Glossary On
Versions: 1 2 3 4 5 6 7 8 9 10 11 12 13 14 15 16 17 18 19 20
000
FTUS44 KOHX 030700 AAA
TAFCSV
TAF AMD
KCSV 030710Z 0307/0406 VRB03KT P6SM OVC050
     FM030900 VRB03KT 4SM BR VCSH OVC006
     FM031200 18007KT 2SM -SHRA BR OVC003
     FM031800 21013G20KT 2SM -SHRA BR OVC003=

USA.gov is the U.S. government's official web portal to all federal, state and local government web resources and services.